STARLINK-31027 (58720 NORAD) Tracking and Keplerian Element Data

This shows tracking and keplerian element data for the satellite.

Feedback or suggestion? Click here.




ElementValue
Catalog58720
NameSTARLINK-31027
Epoch Orbit265
Epoch Day13.25002315
Epoch Year2024
RAAN198.7724
Inclination53.1611
Eccentricity0.0001023
Argument of Perigee103.9746
Mean Anonmoly138.3143
Mean Motion15.51433888
Decay Rate-0.0174502
L11 58720U 24002R 24013.25002315 -.01745020 00000+0 -32655-1 0 9990
L22 58720 53.1611 198.7724 0001023 103.9746 138.3143 15.51433888 2657



Live tracking and technical data element details for STARLINK-31027 (NORAD 58720). STARLINK-31027 can be tracked NOW for your location showing map with azimuth and elevation plus other details from your city location.







IsCatalogInMostPopularTable: catalog: 58720, numindb: 26
Update: records affected: 1



GetName: 58720 STARLINK-31027

Hit Count: updated at: Wed, 17 Apr 2024 03:39:30 GMT